Overview Statistics Trail Chart Weather Telemetry Raw packets
 

This is the latest recevied weather packets stored in our database for station/object KB9HUO. If no packets are shown the sender has not sent any weather packets the latest 10 day(s).

<< 30 31 32 33 34 35 36 >>
Time Temp. Humidity Pressure Rain* Wind** Luminosity Snow
1788465188 35° C 52% 1016.5 hPa 0 mm - 66 W/m² -
1788464882 35° C 53% 1016.5 hPa 0 mm - 69 W/m² -
1788464274 35° C 51% 1016.5 hPa 0 mm - 92 W/m² -
1788463989 35° C 51% 1016.7 hPa 0 mm - 196 W/m² -
1788463665 35° C 51% 1016.6 hPa 0 mm - 110 W/m² -
1788463360 35° C 52% 1016.7 hPa 0 mm - 83 W/m² -
1788463057 35.56° C 51% 1016.9 hPa 0 mm - 242 W/m² -
1788462752 35.56° C 51% 1017 hPa 0 mm - 92 W/m² -
1788462475 35.56° C 51% 1016.9 hPa 0 mm - 164 W/m² -
1788462146 35.56° C 51% 1016.9 hPa 0 mm - 127 W/m² -
1788461841 36.11° C 49% 1016.8 hPa 0 mm - 157 W/m² -
1788461536 36.11° C 51% 1016.7 hPa 0 mm - 507 W/m² -
1788461233 35.56° C 54% 1016.8 hPa 0 mm - 640 W/m² -
1788460929 35° C 52% 1017 hPa 0 mm - 651 W/m² -
1788460628 35° C 54% 1017.2 hPa 0 mm - 663 W/m² -
1788460323 35.56° C 52% 1017.1 hPa 0 mm - 448 W/m² -
1788460021 36.11° C 52% 1017.1 hPa 0 mm - 658 W/m² -
1788459717 36.11° C 51% 1017.2 hPa 0 mm - 672 W/m² -
1788459415 36.11° C 51% 1017 hPa 0 mm - 667 W/m² -
1788459110 35.56° C 52% 1017.1 hPa 0 mm - 685 W/m² -
1788458806 36.11° C 51% 1017.2 hPa 0 mm - 682 W/m² -
1788458506 36.11° C 52% 1017.2 hPa 0 mm - 682 W/m² -
1788458204 35.56° C 51% 1017.4 hPa 0 mm - 680 W/m² -
1788457898 35.56° C 54% 1017.4 hPa 0 mm - 681 W/m² -
1788457593 35.56° C 55% 1017.6 hPa 0 mm - 686 W/m² -

* Rain latest hour (hover to see other rain measurements)
** Current wind speed in m/s (hover to see current wind gust speed)